Location: Ceske Budejovice
(48.9830°N, 14.4670°E)
Time: 02:39:41
(UTC+01:00)

ISS - Pass Details

Date: 05 October 2020
Orbit: 417 x 420 km, 51.6° (Epoch: 25 October)

Event Time Altitude Azimuth Distance (km) Brightness Sun altitude
Rises 19:32:36 0° 289° (WNW) 2,369 1.8 -10.8°
Reaches altitude 10° 19:34:48 10° 280° (W) 1,502 0.6 -11.1°
Maximum altitude 19:37:54 35° 214° (SSW) 703 -2.4 -11.6°
Drops below altitude 10° 19:41:00 10° 146° (SSE) 1,496 -1.3 -12.2°
Enters shadow 19:41:03 10° 146° (SE) 1,515 -1.3 -12.2°
